Back to catalog

TIANQI 26

AliveCommunicationsLEO
NORAD 59910·PAYLOAD·🇨🇳 China

Launched May 29, 2024 from Yellow Sea Launch Area

Loading…

Next Passes (next 24 hours)

TLE

FreshSource: Space-Track

Epoch: Sep 14, 2026, 11:25 UTC

1 59910U 24102B   26257.47615116 -.00000026  00000-0  70169-4 0  9992
2 59910  44.9723 224.1892 0011822 305.1291  54.8433 13.99176425117416

Track TIANQI 26 in real time with AllMySat

Download on the App Store